Location: Coupvray
(48.8929°N, 2.7967°E)
Time: 20:45:40
(UTC+00:00)

Cosmos 1241 Rocket - Pass Details

Date: 06 November 2020
Orbit: 929 x 1018 km, 65.8° (Epoch: 30 November)

Event Time Altitude Azimuth Distance (km) Brightness Sun altitude
Rises 21:17:15 0° 322° (NW) 3,741 8.2 -47.4°
Reaches altitude 10° 21:20:01 10° 329° (NNW) 2,797 7.4 -47.7°
Enters shadow 21:20:59 14° 333° (NNW) 2,484 7.0 -47.9°
